Back to catalog

KUIPER-00043

AliveCommunicationsLEO
NORAD 64504·PAYLOAD·🇺🇸 United States

Launched Jun 23, 2025 from Cape Canaveral Space Force Station

Loading…

Next Passes (next 24 hours)

TLE

FreshSource: CelesTrak SupGP

Epoch: Sep 14, 2026, 21:57 UTC

1 64504C 25134E   26257.91461806  .00004493  00000+0  58811-3 0  2573
2 64504  51.9000 116.3096 0000835 105.1223  65.4036 14.79926156    17

Track KUIPER-00043 in real time with AllMySat

Download on the App Store